This is the latest recevied weather packets stored in our database for station/object DJ4CK-1. If no packets are shown the sender has not sent any weather packets the latest 1 day(s).
| Time | Temp. | Humidity | Pressure | Rain* | Wind** | Luminosity | Snow |
|---|---|---|---|---|---|---|---|
| 1777973523 | 21.67° C | 37% | 1008.3 hPa | 0 mm | 1.34 m/s, 298° | - | - |
| 1777973463 | 21.67° C | 38% | 1008.4 hPa | 0 mm | 1.34 m/s, 293° | - | - |
| 1777973403 | 21.11° C | 37% | 1008.4 hPa | 0 mm | 1.79 m/s, 290° | - | - |
| 1777973343 | 20.56° C | 37% | 1008.4 hPa | 0 mm | 2.68 m/s, 288° | - | - |
| 1777973284 | 20.56° C | 37% | 1008.4 hPa | 0 mm | 2.68 m/s, 286° | - | - |
| 1777973223 | 21.11° C | 37% | 1008.4 hPa | 0 mm | 2.68 m/s, 285° | - | - |
| 1777973163 | 21.67° C | 39% | 1008.4 hPa | 0 mm | 2.24 m/s, 284° | - | - |
| 1777973103 | 21.11° C | 40% | 1008.4 hPa | 0 mm | 1.79 m/s, 283° | - | - |
| 1777973044 | 21.11° C | 41% | 1008.4 hPa | 0 mm | 1.79 m/s, 284° | - | - |
| 1777972983 | 21.11° C | 41% | 1008.4 hPa | 0 mm | 1.79 m/s, 283° | - | - |
| 1777972923 | 21.11° C | 40% | 1008.4 hPa | 0 mm | 1.79 m/s, 282° | - | - |
| 1777972863 | 21.67° C | 41% | 1008.5 hPa | 0 mm | 1.79 m/s, 281° | - | - |
| 1777972804 | 21.67° C | 39% | 1008.5 hPa | 0 mm | 1.79 m/s, 279° | - | - |
| 1777972743 | 21.67° C | 40% | 1008.5 hPa | 0 mm | 1.79 m/s, 277° | - | - |
| 1777972683 | 21.67° C | 41% | 1008.5 hPa | 0 mm | 1.79 m/s, 274° | - | - |
| 1777972623 | 21.67° C | 42% | 1008.5 hPa | 0 mm | 1.79 m/s, 270° | - | - |
| 1777972563 | 21.11° C | 41% | 1008.5 hPa | 0 mm | 1.79 m/s, 266° | - | - |
| 1777972503 | 21.67° C | 40% | 1008.5 hPa | 0 mm | 1.79 m/s, 263° | - | - |
| 1777972443 | 21.11° C | 41% | 1008.5 hPa | 0 mm | 0.89 m/s, 260° | - | - |
| 1777972383 | 21.11° C | 41% | 1008.5 hPa | 0 mm | 0.89 m/s, 257° | - | - |
| 1777972332 | 21.11° C | 40% | 1008.5 hPa | 0 mm | 0.45 m/s, 254° | - | - |
| 1777972263 | 21.67° C | 41% | 1008.5 hPa | 0 mm | 0.45 m/s, 260° | - | - |
| 1777972203 | 21.67° C | 40% | 1008.5 hPa | 0 mm | 0.89 m/s, 265° | - | - |
| 1777972143 | 21.11° C | 40% | 1008.5 hPa | 0 mm | 0.89 m/s, 268° | - | - |
| 1777972083 | 21.67° C | 40% | 1008.5 hPa | 0 mm | 0.89 m/s, 272° | - | - |
* Rain latest hour (hover to see other rain measurements)
** Current wind speed in m/s (hover to see current wind gust speed)